Погода в Кетове

Россия / Курганская область     55°20′37″N   65°20′01″E
темп.,
°C
ветер,
м/с
пор.,
м/с
влажн.,
%
обл.,
%
осадки,
мм/ч
давл.,
гПа
погр.,
м
18 мая, вт
вт1823:00+19з41253100 0.3 1014232
02:00+18зсз226511 0.3 101421
05:00+16юз3380100 0.5 101446
08:00+18юз2173100 2.3 1013103
11:00+25зсз5845100 2.4 10131038
14:00+28зсз5837100 0.0 10122813
17:00+24ссв475092 0.9 1011936
20:00+19ссв6963100 1.9 1014314
19 мая, ср
ср1923:00+14св613750 2.7 1017568
02:00+12ссв5108598 0.0 1018432
05:00+12ссв611760 0.0 1020613
08:00+14св68600 0.0 1022836
11:00+17св684159 0.0 10221593
14:00+20ссв66355 0.0 10221722
17:00+20ссв56365 0.0 10221808
20:00+16ссв365126 0.0 1022119
20 мая, чт
чт2023:00+13св355395 0.0 102481
02:00+11всв2355100 0.0 102427
05:00+10юв11625 0.0 102510
08:00+16зсз11465 0.0 1025328
11:00+20з2336100 0.0 10241436
14:00+23з34315 0.0 10221753
17:00+24з45315 0.0 10211862
20:00+20з34481 0.0 102146
21 мая, пт
пт2123:00+16з22510 0.0 102113
02:00+15зюз33571 0.0 102129
05:00+14з22610 0.0 102217
08:00+20з23450 0.0 1022314
11:00+25зюз33330 0.0 10221156
14:00+27зюз33270 0.0 10211868
17:00+27юз22250 0.0 10212119
20:00+23ю33400 0.0 102121
22 мая, сб
сб2223:00+18юз33450 0.0 102129
02:00+17ююз22450 0.0 102111
05:00+15ююз23500 0.0 102220
08:00+21юз34410 0.0 1022283
11:00+26юз45300 0.0 10221313
14:00+28ююз46250 0.0 10212482
17:00+28юз452317 0.0 10203033
20:00+23зюз354397 0.0 102178